Volver al catálogo

SL-8 DEB

ActivoLEO
NORAD 21249·DEBRIS·🇷🇺 Russia

Lanzado Feb 12, 1991 desde Plesetsk Cosmodrome

Loading…

Próximos Pases (próximas 24 horas)

TLE

ActualizadoSource: Space-Track

Época: Sep 14, 2026, 09:50 UTC

1 21249U 91009BG  26257.41028088 -.00000002  00000-0  11471-3 0  9990
2 21249  74.0720  45.0819 0123070  42.0666 347.3737 12.22377679584854

Sigue SL-8 DEB en tiempo real con AllMySat

Download on the App Store